Sugar Grove, IL

8:47 AM CST on December 04, 2016 (GMT -0600)
Aurora Municipal

Weather History for KARR - September, 2013

Change the Weather History Date:

Monday, September 9, 2013

  Actual Average Record
Temperature  
Mean Temperature 80 °F 66 °F  
Max Temperature 92 °F 78 °F 92 °F (2013)
Min Temperature 67 °F 54 °F 42 °F (1999)
Degree Days  
Heating Degree Days 0 2  
Month to date heating degree days 4 14  
Since 1 July heating degree days 32 38  
Cooling Degree Days 15 3  
Month to date cooling degree days 50 33  
Year to date cooling degree days 677 617  
Growing Degree Days 28 (Base 50)    
Moisture  
Dew Point 70 °F    
Average Humidity 75    
Maximum Humidity 93    
Minimum Humidity 56    
Precipitation  
Precipitation 0.00 in 0.12 in 0.73 in (2001)
Month to date precipitation 0.01 0.89  
Year to date precipitation 26.24 26.09  
Sea Level Pressure  
Sea Level Pressure 29.89 in    
Wind  
Wind Speed 8 mph (South)    
Max Wind Speed 14 mph    
Max Gust Speed 18 mph    
Visibility 7 miles    
Events      
T = Trace of Precipitation, MM = Missing Value Source: NWS Daily Summary

Daily Weather History Graph

Daily Weather History Graph

Search for Another Location

Airport or City:

Trip Planner

Search our weather history database for the weather conditions in past years. The results will help you decide how hot, cold, wet, or windy it might be!

Date:

Astronomy

Sep. 09, 2013 Rise Set
Actual Time 6:28 AM CDT 7:13 PM CDT
Civil Twilight 6:00 AM CDT 7:41 PM CDT
Nautical Twilight 5:26 AM CDT 8:14 PM CDT
Astronomical Twilight 4:52 AM CDT 8:49 PM CDT
Moon 10:54 AM CDT (9/9) 9:24 PM CDT (9/9)
Length of Visible Light 13h 41m
Length of Day
12h 45m
Waxing Crescent, 19% of the Moon is Illuminated
Sep 9
Waxing Crescent
Sep 12
First Quarter
Sep 19
Full
Sep 26
Last Quarter
Oct 4
New

Hourly Weather History & Observations

Time (CDT) Temp. Heat Index Dew Point Humidity Pressure Visibility Wind Dir Wind Speed Gust Speed Precip Events Conditions
12:52 AM 70.0 °F - 64.9 °F 84% 29.96 in 7.0 mi ESE 4.6 mph - N/A   Clear
1:52 AM 69.1 °F - 66.0 °F 90% 29.94 in 6.0 mi ESE 6.9 mph - N/A   Clear
2:52 AM 69.1 °F - 66.0 °F 90% 29.93 in 5.0 mi SE 6.9 mph - N/A   Clear
3:52 AM 68.0 °F - 64.9 °F 90% 29.93 in 5.0 mi SE 5.8 mph - N/A   Clear
4:52 AM 66.9 °F - 64.9 °F 93% 29.92 in 4.0 mi SE 6.9 mph - N/A   Clear
5:52 AM 66.9 °F - 64.9 °F 93% 29.91 in 4.0 mi SSE 5.8 mph - N/A   Clear
6:40 AM 66.2 °F - 64.4 °F 94% 29.92 in 2.0 mi SE 4.6 mph - N/A   Clear
6:52 AM 66.9 °F - 64.9 °F 93% 29.91 in 2.0 mi SE 4.6 mph - N/A   Clear
7:52 AM 70.0 °F - 66.9 °F 90% 29.91 in 3.0 mi SSE 5.8 mph - N/A   Clear
8:52 AM 73.0 °F - 69.1 °F 87% 29.91 in 4.0 mi SSE 6.9 mph - N/A   Mostly Cloudy
9:52 AM 77.0 °F - 71.1 °F 82% 29.90 in 5.0 mi SSE 9.2 mph - N/A   Haze
10:52 AM 81.0 °F 85.2 °F 72.0 °F 74% 29.90 in 6.0 mi South 9.2 mph - N/A   Haze
11:52 AM 84.0 °F 90.2 °F 73.0 °F 69% 29.89 in 7.0 mi SSW 10.4 mph - N/A   Partly Cloudy
12:52 PM 86.0 °F 93.8 °F 73.9 °F 67% 29.88 in 8.0 mi South 9.2 mph - N/A   Clear
1:52 PM 89.1 °F 98.0 °F 73.9 °F 61% 29.86 in 8.0 mi SSW 9.2 mph - N/A   Clear
2:52 PM 91.0 °F 101.6 °F 75.0 °F 59% 29.84 in 8.0 mi SSW 10.4 mph - N/A   Clear
3:52 PM 91.0 °F 100.4 °F 73.9 °F 57% 29.83 in 9.0 mi SSW 10.4 mph - N/A   Clear
4:52 PM 91.9 °F 103.2 °F 75.0 °F 58% 29.83 in 8.0 mi SSW 6.9 mph - N/A   Clear
5:52 PM 90.0 °F 100.2 °F 75.0 °F 61% 29.83 in 9.0 mi SSW 5.8 mph - N/A   Clear
6:52 PM 87.1 °F 96.3 °F 75.0 °F 67% 29.83 in 8.0 mi South 4.6 mph - N/A   Clear
7:52 PM 82.9 °F 89.4 °F 73.9 °F 74% 29.85 in 9.0 mi SSW 6.9 mph - N/A   Clear
8:52 PM 82.9 °F 88.0 °F 72.0 °F 69% 29.86 in 10.0 mi SSW 8.1 mph - N/A   Clear
9:52 PM 82.0 °F 86.7 °F 72.0 °F 71% 29.87 in 9.0 mi SSW 10.4 mph - N/A   Clear
10:52 PM 81.0 °F 85.2 °F 72.0 °F 74% 29.88 in 9.0 mi SSW 11.5 mph - N/A   Clear
11:52 PM 81.0 °F 85.2 °F 72.0 °F 74% 29.88 in 9.0 mi SW 11.5 mph - N/A   Clear